Погода в Аше

Россия / Краснодарский край     43°57′30″N   39°16′08″E
темп.,
°C
ветер,
м/с
пор.,
м/с
влажн.,
%
обл.,
%
осадки,
мм/ч
давл.,
гПа
погр.,
м
27 января, ср
ср2700:00+12ююв3462100 0.0 101449
03:00+11вюв4764100 0.0 1012130
06:00+10юв4667100 0.0 1010138
09:00+11вюв4556100 0.0 100959
12:00+12юв51062100 0.0 1007328
15:00+13ююв61453100 0.0 1005411
18:00+12юв61855100 0.0 1005442
21:00+12юв6145596 0.0 1003265
28 января, чт
чт2800:00+12юв4553100 0.0 100254
03:00+10юв5868100 0.0 1001162
06:00+11ююв4768100 0.0 1001167
09:00+10ю247699 0.2 1003201
12:00+7юв4692100 6.5 1006313
15:00+7ю81193100 15.7 1008965
18:00+6юз4581100 2.9 1011688
21:00+6юз3578100 4.1 1012720
29 января, пт
пт2900:00+6ююз3467100 0.3 1013901
03:00+6ююз4564100 0.4 1013936
06:00+5ююв4672100 0.3 1013801
09:00+5ююз5773100 3.2 10131002
12:00+6ююз3572100 1.9 1014877
15:00+5ю3576100 3.8 1014779
18:00+5ю357370 1.1 1015754
21:00+6ю697040 1.8 10151209
30 января, сб
сб3000:00+6ююв8117750 0.4 10151053
03:00+6ююв7117548 0.6 1014948
06:00+6ююв61063100 0.0 1012674
09:00+7юв6115379 0.0 1012600
12:00+8ююв812590 0.0 1010965
15:00+9ююв813570 0.0 1007963
18:00+8юв6156215 0.0 1006717
21:00+9юв7195438 0.0 1004609
31 января, вс
вс3100:00+10юв82050100 0.0 1003617
03:00+10ю8185397 0.0 1004559
06:00+9ю71482100 1.1 10051057
09:00+8юв81285100 5.9 1008931
12:00+8ююв101393100 6.3 1011896
15:00+8ююв91489100 10.3 1012812
18:00+8ююв6990100 1.9 1013568
21:00+9юв4880100 1.9 1014367